Weather History for Mineola, TX

Change the Weather History Date:

Saturday, March 23, 2013

  Actual Average (KTYR) Record (KTYR)
Temperature  
Mean Temperature 52 °F 58 °F  
Max Temperature 57 °F 68 °F 91 °F (1995)
Min Temperature 46 °F 48 °F 27 °F (1968)
Degree Days  
Heating Degree Days 14 8  
Month to date heating degree days 219  
Since 1 July heating degree days 2111  
Cooling Degree Days 0 1  
Month to date cooling degree days 11  
Year to date cooling degree days 23  
Growing Degree Days 2 (Base 50)    
Moisture  
Dew Point 50 °F    
Average Humidity 99    
Maximum Humidity 100    
Minimum Humidity 88    
Precipitation  
Precipitation 0.82 in 0.14 in 1.59 in (1912)
Month to date precipitation 3.17  
Year to date precipitation 10.04  
Snow  
Snow 0.00 in - - ()
Month to date snowfall  
Since 1 July snowfall  
Snow Depth -    
Sea Level Pressure  
Sea Level Pressure 29.77 in    
Wind  
Wind Speed 3 mph (NNE)    
Max Wind Speed 10 mph    
Max Gust Speed -    
Visibility 4 miles    
Events Rain , Thunderstorm    
T = Trace of Precipitation, MM = Missing Value Source: NWS Daily Summary

Daily Weather History Graph

Daily Weather History Graph

Search for Another Location

Airport:

Trip Planner

Search our weather history database for the weather conditions in past years. The results will help you decide how hot, cold, wet, or windy it might be!

Date:

Astronomy

Mar. 23, 2013 Rise Set
Actual Time 7:21 AM CDT 7:35 PM CDT
Civil Twilight 6:56 AM CDT 8:00 PM CDT
Nautical Twilight 6:28 AM CDT 8:29 PM CDT
Astronomical Twilight 5:58 AM CDT 8:58 PM CDT
Moon 4:13 PM CDT (3/23) 4:47 AM CDT (3/23)
Length of Visible Light 13h 03m
Length of Day
12h 14m
Waxing Gibbous, 85% of the Moon is Illuminated
Mar 23
Waxing Gibbous
Mar 27
Full
Apr 2
Last Quarter
Apr 10
New
Apr 18
First Quarter

Hourly Weather History & Observations

Time (CDT) Temp. Windchill Dew Point Humidity Pressure Visibility Wind Dir Wind Speed Gust Speed Precip Events Conditions
12:15 AM 46.4 °F 45.2 °F 46.4 °F 100% 29.86 in 3.0 mi NNE 3.5 mph - N/A   Overcast
12:35 AM 46.4 °F 45.2 °F 46.4 °F 100% 29.84 in 2.5 mi NNE 3.5 mph - N/A   Overcast
12:55 AM 48.2 °F - 46.4 °F 93% 29.84 in 1.5 mi Calm Calm - N/A   Overcast
1:15 AM 48.2 °F - 46.4 °F 93% 29.84 in 1.0 mi Calm Calm - N/A   Overcast
1:35 AM 48.2 °F - 48.2 °F 100% 29.82 in 1.2 mi Calm Calm - N/A   Overcast
1:55 AM 46.4 °F 45.2 °F 46.4 °F 100% 29.81 in 1.2 mi ENE 3.5 mph - N/A   Overcast
2:15 AM 46.4 °F 45.2 °F 46.4 °F 100% 29.80 in 1.0 mi ENE 3.5 mph - N/A   Overcast
2:35 AM 48.2 °F - 48.2 °F 100% 29.81 in 1.0 mi Calm Calm - N/A   Overcast
2:55 AM 48.2 °F - 48.2 °F 100% 29.81 in 1.0 mi Calm Calm - N/A   Overcast
3:15 AM 48.2 °F - 48.2 °F 100% 29.81 in 1.5 mi Calm Calm - N/A   Overcast
3:35 AM 48.2 °F - 48.2 °F 100% 29.80 in 0.8 mi Calm Calm - N/A   Overcast
3:55 AM 46.4 °F - 46.4 °F 100% 29.80 in 0.8 mi Calm Calm - N/A   Overcast
4:15 AM 46.4 °F - 46.4 °F 100% 29.79 in 0.8 mi Calm Calm - N/A   Overcast
4:35 AM 48.2 °F - 48.2 °F 100% 29.80 in 1.2 mi NNW 5.8 mph - N/A   Overcast
4:55 AM 46.4 °F 43.5 °F 46.4 °F 100% 29.81 in 1.2 mi North 5.8 mph - N/A   Overcast
5:15 AM 46.4 °F 42.9 °F 46.4 °F 100% 29.81 in 2.5 mi North 6.9 mph - N/A   Overcast
5:35 AM 46.4 °F 45.2 °F 46.4 °F 100% 29.81 in 1.0 mi NNE 3.5 mph - N/A   Overcast
5:55 AM 46.4 °F 45.2 °F 46.4 °F 100% 29.82 in 2.0 mi NNE 3.5 mph - N/A   Overcast
6:15 AM 46.4 °F 43.5 °F 46.4 °F 100% 29.83 in 1.8 mi North 5.8 mph - N/A   Overcast
6:35 AM 46.4 °F 44.3 °F 46.4 °F 100% 29.82 in 1.5 mi ENE 4.6 mph - N/A   Overcast
6:55 AM 46.4 °F 44.3 °F 46.4 °F 100% 29.84 in 1.8 mi NNE 4.6 mph - N/A   Overcast
7:15 AM 46.4 °F 45.2 °F 46.4 °F 100% 29.84 in 2.0 mi NE 3.5 mph - N/A   Overcast
7:35 AM 46.4 °F 44.3 °F 46.4 °F 100% 29.83 in 1.8 mi NNE 4.6 mph - N/A   Overcast
8:15 AM 46.4 °F 44.3 °F 46.4 °F 100% 29.81 in 2.5 mi East 4.6 mph - N/A   Overcast
8:35 AM 46.4 °F - 46.4 °F 100% 29.82 in 1.8 mi Calm Calm - N/A   Overcast
8:55 AM 46.4 °F 44.3 °F 46.4 °F 100% 29.83 in 1.8 mi NNE 4.6 mph - N/A Thunderstorm Overcast
9:15 AM 46.4 °F 42.4 °F 46.4 °F 100% 29.94 in 3.0 mi West 8.1 mph - N/A Thunderstorm Overcast
9:35 AM 46.4 °F 43.5 °F 46.4 °F 100% 29.86 in 0.2 mi ENE 5.8 mph - 0.29 in Rain , Thunderstorm Heavy Thunderstorms and Rain
9:55 AM 46.4 °F 45.2 °F 46.4 °F 100% 29.85 in 2.5 mi ENE 3.5 mph - 0.29 in Thunderstorm Overcast
10:15 AM 48.2 °F - 48.2 °F 100% 29.83 in 3.0 mi ESE 5.8 mph - N/A   Overcast
10:35 AM 48.2 °F - 48.2 °F 100% 29.81 in 7.0 mi Calm Calm - N/A   Overcast
10:55 AM 50.0 °F - 50.0 °F 100% 29.79 in 7.0 mi ESE 6.9 mph - N/A   Overcast
11:15 AM 51.8 °F - 51.8 °F 100% 29.77 in 8.0 mi East 5.8 mph - N/A   Overcast
11:35 AM 53.6 °F - 53.6 °F 100% 29.77 in 10.0 mi ESE 4.6 mph - N/A   Overcast
11:55 AM 55.4 °F - 53.6 °F 94% 29.76 in 10.0 mi ESE 8.1 mph - N/A   Mostly Cloudy
12:15 PM 57.2 °F - 53.6 °F 88% 29.76 in 10.0 mi ESE 5.8 mph - N/A   Mostly Cloudy
12:35 PM 55.4 °F - 51.8 °F 88% 29.76 in 10.0 mi SSE 3.5 mph - N/A   Mostly Cloudy
12:55 PM 55.4 °F - 51.8 °F 88% 29.76 in 10.0 mi Calm Calm - N/A   Overcast
1:15 PM 55.4 °F - 51.8 °F 88% 29.74 in 10.0 mi Calm Calm - N/A   Overcast
1:35 PM 55.4 °F - 53.6 °F 94% 29.76 in 0.8 mi Calm Calm - 0.16 in Rain , Thunderstorm Heavy Thunderstorms and Rain
1:55 PM 53.6 °F - 53.6 °F 100% 29.75 in 1.5 mi Calm Calm - 0.53 in Rain , Thunderstorm Rain
2:15 PM 55.4 °F - 55.4 °F 100% 29.74 in 5.0 mi Calm Calm - N/A Thunderstorm Overcast
2:35 PM 55.4 °F - 55.4 °F 100% 29.73 in 7.0 mi Calm Calm - N/A   Overcast
2:55 PM 55.4 °F - 55.4 °F 100% 29.70 in 10.0 mi NE 3.5 mph - N/A   Overcast
3:15 PM 55.4 °F - 55.4 °F 100% 29.70 in 8.0 mi NNE 4.6 mph - N/A   Overcast
3:35 PM 53.6 °F - 53.6 °F 100% 29.70 in 3.0 mi NE 4.6 mph - N/A   Overcast
3:55 PM 53.6 °F - 53.6 °F 100% 29.69 in 3.0 mi Calm Calm - N/A   Overcast
4:15 PM 53.6 °F - 53.6 °F 100% 29.70 in 3.0 mi NNW 5.8 mph - N/A Rain Light Rain
4:35 PM 53.6 °F - 53.6 °F 100% 29.70 in 2.5 mi Calm Calm - N/A Thunderstorm Overcast
4:55 PM 53.6 °F - 53.6 °F 100% 29.71 in 2.0 mi Calm Calm - N/A   Overcast
5:15 PM 53.6 °F - 53.6 °F 100% 29.70 in 2.0 mi NNW 5.8 mph - N/A   Overcast
5:35 PM 53.6 °F - 53.6 °F 100% 29.70 in 2.0 mi NNW 8.1 mph - N/A   Overcast
5:55 PM 53.6 °F - 53.6 °F 100% 29.70 in 2.5 mi North 5.8 mph - N/A Thunderstorm Overcast
6:15 PM 53.6 °F - 53.6 °F 100% 29.70 in 3.0 mi NNW 10.4 mph - N/A   Overcast
6:35 PM 53.6 °F - 51.8 °F 94% 29.70 in 4.0 mi North 6.9 mph - N/A   Overcast
6:55 PM 53.6 °F - 51.8 °F 94% 29.71 in 5.0 mi North 4.6 mph - N/A   Overcast
7:15 PM 51.8 °F - 51.8 °F 100% 29.72 in 5.0 mi North 3.5 mph - N/A   Overcast
7:35 PM 51.8 °F - 51.8 °F 100% 29.72 in 4.0 mi North 5.8 mph - N/A   Overcast
7:55 PM 51.8 °F - 51.8 °F 100% 29.72 in 5.0 mi Calm Calm - N/A   Overcast
8:15 PM 51.8 °F - 51.8 °F 100% 29.72 in 5.0 mi Calm Calm - N/A   Overcast
8:35 PM 51.8 °F - 51.8 °F 100% 29.71 in 4.0 mi Calm Calm - N/A   Overcast
8:55 PM 51.8 °F - 51.8 °F 100% 29.72 in 5.0 mi Calm Calm - N/A   Overcast
9:15 PM 51.8 °F - 51.8 °F 100% 29.72 in 5.0 mi Calm Calm - N/A   Overcast
9:35 PM 51.8 °F - 51.8 °F 100% 29.72 in 5.0 mi NNE 3.5 mph - N/A   Overcast
9:55 PM 51.8 °F - 51.8 °F 100% 29.72 in 5.0 mi Calm Calm - N/A   Overcast
10:15 PM 51.8 °F - 51.8 °F 100% 29.71 in 4.0 mi Calm Calm - N/A   Overcast
10:35 PM 51.8 °F - 51.8 °F 100% 29.70 in 2.5 mi Calm Calm - N/A   Overcast
10:55 PM 51.8 °F - 51.8 °F 100% 29.69 in 2.0 mi Calm Calm - N/A   Overcast
11:15 PM 51.8 °F - 51.8 °F 100% 29.68 in 1.2 mi Calm Calm - N/A   Overcast
11:35 PM 51.8 °F - 51.8 °F 100% 29.69 in 1.8 mi Calm Calm - N/A   Overcast
11:55 PM 51.8 °F - 51.8 °F 100% 29.73 in 1.8 mi NW 9.2 mph - N/A   Overcast